Terminal Aerodrome Forecast
Issued by NWS

Home | Current Version | Previous Version | Text Only | Print | Product List | Glossary On
Versions: 1 2 3 4 5 6 7 8 9 10 11 12 13
000
FTUS44 KEPZ 271720
TAFDMN
TAF
KDMN 271720Z 2718/2818 17006KT P6SM FEW060
     FM272100 24006KT P6SM VCTS SCT070CB BKN200
      TEMPO 2723/2803 1SM TSRA BKN040CB
     FM280400 VRB04KT P6SM SCT060 BKN100=

USA.gov is the U.S. government's official web portal to all federal, state and local government web resources and services.